Weather reports worldwide

Advertisment
Vigo Peinador, Spain (8045): temperature & dewpoint: 29.06.2020 14:00:00 - 05.07.2020 14:00:00 (CEST)Vigo Peinador, Spain (8045): wind speed: 29.06.2020 14:00:00 - 05.07.2020 14:00:00 (CEST)Vigo Peinador, Spain (8045): wind direction: 29.06.2020 14:00:00 - 05.07.2020 14:00:00 (CEST)Vigo Peinador, Spain (8045): reduced air pressure: 29.06.2020 14:00:00 - 05.07.2020 14:00:00 (CEST)Vigo Peinador, Spain (8045): visibility: 29.06.2020 14:00:00 - 05.07.2020 14:00:00 (CEST)
Date & Time tt [°C] td [°C] ff [km/h] ff [kn] dd ppp [hPa] vv [km]
05.07.2020 14:00:00 31,7 20,6 8 4 ENE 1019,3 50
05.07.2020 13:00:00 30,8 19,7 9 5 NE 1019,4 10
05.07.2020 12:00:00 28,2 19,1 5 3 ENE 1019,6 10
05.07.2020 11:00:00 26,8 18,6 5 3 ESE 1020,0 50
05.07.2020 10:00:00 23,7 17,6 5 3 S 1020,2 10
05.07.2020 09:00:00 21,6 16,8 8 4 S 1020,4 10
05.07.2020 08:00:00 19,4 18,4 2 1 E 1020,4 35
05.07.2020 07:00:00 18,1 18,1 8 4 NNE 1020,4 10
05.07.2020 06:00:00 18,8 17,8 8 4 N 1020,6 10
05.07.2020 05:00:00 18,7 17,7 5 3 NNE 1020,8 10
05.07.2020 04:00:00 19,4 16,3 4 2 - 1021,2 10
05.07.2020 03:00:00 20,0 16,6 8 4 NNE 1021,7 10
05.07.2020 02:00:00 19,8 17,0 13 7 NNE 1022,0 10
05.07.2020 01:00:00 19,6 17,9 8 4 NE 1022,6 10
05.07.2020 00:00:00 20,7 17,7 15 8 NNE 1022,6 10
04.07.2020 23:00:00 20,6 19,2 13 7 NNE 1022,2 10
04.07.2020 22:00:00 21,7 19,4 11 6 N 1021,8 10
04.07.2020 21:00:00 22,2 19,0 11 6 W 1022,0 10
04.07.2020 20:00:00 24,6 18,1 13 7 W 1021,3 35
04.07.2020 19:00:00 23,7 17,6 16 9 W 1021,7 10
04.07.2020 18:00:00 24,2 17,3 22 12 W 1022,0 10
04.07.2020 17:00:00 25,0 16,7 22 12 W 1022,3 10
04.07.2020 16:00:00 25,9 16,5 18 10 W 1022,4 10
04.07.2020 15:00:00 26,7 14,5 11 6 W 1022,7 10
04.07.2020 14:00:00 26,7 13,8 8 4 NE 1022,8 10
04.07.2020 13:00:00 25,4 12,6 8 4 NE 1023,3 10
04.07.2020 12:00:00 23,7 9,7 8 4 ENE 1023,5 10
04.07.2020 11:00:00 21,4 9,6 5 3 - 1023,6 10
04.07.2020 10:00:00 20,3 11,8 5 3 E 1023,8 10
04.07.2020 09:00:00 16,7 12,7 4 2 E 1024,0 10
04.07.2020 08:00:00 14,4 13,2 4 2 - 1023,9 10
04.07.2020 07:00:00 12,4 12,1 8 4 N 1023,9 10
04.07.2020 06:00:00 12,0 12,0 2 1 N 1023,5 10
04.07.2020 05:00:00 12,1 12,1 4 2 W 1023,5 25
04.07.2020 04:00:00 12,9 12,9 5 3 NNE 1023,8 10
04.07.2020 03:00:00 13,4 13,4 9 5 NNE 1023,9 10
04.07.2020 02:00:00 14,3 13,8 4 2 N 1023,9 10
04.07.2020 01:00:00 15,0 14,4 8 4 NNW 1024,2 10
04.07.2020 00:00:00 16,0 14,5 11 6 N 1023,8 10
03.07.2020 23:00:00 17,7 14,0 13 7 NNE 1023,2 10
03.07.2020 22:00:00 19,7 13,4 13 7 NNW 1022,7 10
03.07.2020 21:00:00 20,5 14,0 11 6 W 1022,2 10
03.07.2020 20:00:00 21,5 13,7 16 9 W 1022,0 10
03.07.2020 19:00:00 22,5 13,3 16 9 W 1021,9 10
03.07.2020 18:00:00 22,8 13,5 16 9 W 1021,9 10
03.07.2020 17:00:00 21,8 12,7 22 12 W 1022,5 30
03.07.2020 16:00:00 22,3 12,3 24 13 W 1022,6 10
03.07.2020 15:00:00 23,0 12,4 13 7 WNW 1022,8 10
03.07.2020 14:00:00 23,3 12,9 9 5 NE 1023,0 30
03.07.2020 13:00:00 21,3 11,9 8 4 ENE 1023,5 10
03.07.2020 12:00:00 19,6 11,6 9 5 - 1023,6 10
03.07.2020 11:00:00 17,9 10,7 9 5 NE 1023,9 30
03.07.2020 10:00:00 15,7 10,8 9 5 NE 1023,9 10
03.07.2020 09:00:00 14,4 11,0 5 3 NNE 1023,8 10
03.07.2020 08:00:00 12,1 10,3 4 2 - 1023,9 10
03.07.2020 07:00:00 10,0 9,8 0 0 N 1023,9 10
03.07.2020 06:00:00 10,3 10,3 9 5 NNE 1023,9 10
03.07.2020 05:00:00 10,6 10,6 9 5 NNE 1023,9 10
03.07.2020 04:00:00 10,7 10,5 8 4 NE 1023,9 10
03.07.2020 03:00:00 12,5 10,2 13 7 N 1024,1 10
03.07.2020 02:00:00 13,1 9,5 18 10 N 1024,3 35
03.07.2020 01:00:00 13,6 9,5 15 8 NNE 1024,2 10
03.07.2020 00:00:00 14,3 10,3 16 9 NNE 1024,0 10
02.07.2020 23:00:00 14,9 10,3 13 7 NNE 1023,4 35
02.07.2020 22:00:00 16,6 10,0 21 11 N 1022,6 10
02.07.2020 21:00:00 18,6 9,9 21 11 N 1022,0 10
02.07.2020 20:00:00 19,6 10,8 15 8 NW 1021,5 10
02.07.2020 19:00:00 19,6 12,0 11 6 WNW 1021,5 10
02.07.2020 18:00:00 19,7 11,5 15 8 NW 1021,7 10
02.07.2020 17:00:00 19,6 11,7 21 11 WNW 1021,6 35
02.07.2020 16:00:00 20,2 10,7 16 9 NNW 1021,6 10
02.07.2020 15:00:00 19,9 11,3 16 9 WNW 1021,5 10
02.07.2020 14:00:00 20,6 10,9 9 5 NE 1021,5 10
02.07.2020 13:00:00 18,4 13,1 15 8 N 1021,6 10
02.07.2020 12:00:00 18,1 11,5 13 7 N 1021,3 10
02.07.2020 11:00:00 17,3 13,2 9 5 NNE 1021,0 35
02.07.2020 10:00:00 16,2 11,7 5 3 NE 1020,6 10
02.07.2020 09:00:00 15,1 13,2 4 2 - 1020,2 10
02.07.2020 08:00:00 14,3 10,5 8 4 WNW 1019,9 30
02.07.2020 07:00:00 14,7 10,8 8 4 - 1019,5 10
02.07.2020 06:00:00 14,7 12,0 8 4 NNE 1019,1 10
02.07.2020 05:00:00 14,8 12,3 5 3 NNE 1019,1 10
02.07.2020 04:00:00 14,7 12,2 8 4 N 1019,1 10
02.07.2020 03:00:00 15,1 13,2 8 4 N 1019,2 10
02.07.2020 02:00:00 14,6 14,3 8 4 NNE 1019,4 10
02.07.2020 01:00:00 15,3 14,3 5 3 NW 1019,5 10
02.07.2020 00:00:00 15,9 13,9 9 5 NW 1019,3 10
01.07.2020 23:00:00 16,0 14,8 9 5 WNW 1018,9 25
01.07.2020 22:00:00 16,5 14,3 15 8 W 1018,1 10
01.07.2020 21:00:00 18,6 13,2 16 9 WNW 1017,7 10
01.07.2020 20:00:00 19,7 13,9 16 9 W 1017,6 10
01.07.2020 19:00:00 20,6 14,3 16 9 W 1017,3 10
01.07.2020 18:00:00 21,3 14,0 13 7 W 1017,5 10
01.07.2020 17:00:00 21,4 14,5 11 6 W 1017,7 25
01.07.2020 16:00:00 20,3 13,1 13 7 W 1018,0 10
01.07.2020 15:00:00 20,1 12,8 15 8 SW 1018,0 10
01.07.2020 14:00:00 20,1 15,2 16 9 W 1017,6 10
01.07.2020 13:00:00 18,7 15,3 22 12 W 1018,0 8
01.07.2020 12:00:00 17,4 17,4 15 8 W 1017,5 6
01.07.2020 11:00:00 18,4 17,7 9 5 SW 1016,7 15
01.07.2020 10:00:00 17,4 17,4 9 5 WNW 1016,6 9
01.07.2020 09:00:00 17,2 17,2 11 6 NW 1016,2 9
01.07.2020 08:00:00 17,2 17,2 5 3 NW 1015,7 9
01.07.2020 07:00:00 16,9 16,9 2 1 - 1015,3 9
01.07.2020 06:00:00 16,8 16,8 0 0 N 1015,1 7
01.07.2020 05:00:00 16,6 16,6 11 6 W 1015,1 11
01.07.2020 04:00:00 16,7 16,7 8 4 SW 1014,9 7
01.07.2020 03:00:00 16,5 16,5 11 6 WSW 1014,9 10
01.07.2020 02:00:00 16,8 16,8 15 8 W 1015,0 10
01.07.2020 01:00:00 17,9 17,9 9 5 W 1014,9 10
01.07.2020 00:00:00 20,1 17,3 11 6 NNW 1014,4 10
30.06.2020 23:00:00 21,4 17,6 15 8 NNW 1014,0 10
30.06.2020 22:00:00 20,6 19,1 11 6 W 1013,5 10
30.06.2020 21:00:00 21,6 18,5 21 11 W 1012,8 10
30.06.2020 20:00:00 22,8 18,1 24 13 WSW 1012,0 10
30.06.2020 19:00:00 23,6 18,3 28 15 WSW 1012,1 10
30.06.2020 18:00:00 24,5 18,4 26 14 WSW 1012,0 10
30.06.2020 17:00:00 25,1 18,6 22 12 W 1012,0 10
30.06.2020 16:00:00 26,3 18,8 21 11 W 1012,0 10
30.06.2020 15:00:00 27,3 18,7 13 7 WSW 1012,0 10
30.06.2020 14:00:00 27,6 20,2 11 6 NE 1012,1 35
30.06.2020 13:00:00 27,6 19,6 9 5 NE 1012,4 10
30.06.2020 12:00:00 24,5 19,4 8 4 NE 1012,7 10
30.06.2020 11:00:00 22,8 18,6 11 6 NE 1013,2 35
30.06.2020 10:00:00 20,9 18,4 4 2 - 1013,7 10
30.06.2020 09:00:00 18,9 18,4 4 2 NE 1013,8 10
30.06.2020 08:00:00 17,9 17,7 2 1 - 1013,8 10
30.06.2020 07:00:00 17,0 17,0 8 4 NNE 1013,8 10
30.06.2020 06:00:00 16,5 16,5 9 5 NNE 1013,9 10
30.06.2020 05:00:00 17,1 16,8 11 6 NNE 1014,3 10
30.06.2020 04:00:00 18,5 17,0 13 7 N 1014,7 10
30.06.2020 03:00:00 17,4 17,1 4 2 ENE 1015,7 10
30.06.2020 02:00:00 17,8 16,8 13 7 NNE 1016,3 10
30.06.2020 01:00:00 18,2 16,4 13 7 NNE 1016,8 10
30.06.2020 00:00:00 20,0 14,0 16 9 NNE - 10
29.06.2020 23:00:00 20,2 13,2 21 11 N 1016,6 10
29.06.2020 22:00:00 21,3 12,4 24 13 N 1016,3 10
29.06.2020 21:00:00 23,7 13,6 22 12 N 1016,1 10
29.06.2020 20:00:00 25,1 12,6 22 12 N 1016,0 50
29.06.2020 19:00:00 25,9 13,8 24 13 N 1016,1 10
29.06.2020 18:00:00 26,0 14,4 21 11 N 1016,6 10
29.06.2020 17:00:00 25,8 14,3 18 10 NNW 1017,2 10
29.06.2020 16:00:00 25,2 15,1 15 8 N 1017,8 10
29.06.2020 15:00:00 24,6 17,7 13 7 N 1018,3 10
29.06.2020 14:00:00 23,9 18,4 11 6 - 1019,0 10

tt = temperature
td = dewpoint
ff = wind speed
dd = wind direction
ppp = reduced air pressure
vv = visibility

Next stations